Location: Bussy-Saint-Georges
(48.8410°N, 2.7017°E)
Time: 16:12:04
(UTC+00:00)

Okean O Rocket - Pass Details

Date: 18 October 2021
Orbit: 623 x 643 km, 98.2° (Epoch: 29 November)

Event Time Altitude Azimuth Distance (km) Brightness Sun altitude
Rises 18:39:30 0° 189° (S) 2,892 5.0 -18.2°
Reaches altitude 10° 18:41:52 10° 200° (SSW) 1,991 4.3 -18.5°
Maximum altitude 18:45:45 32° 264° (W) 1,080 3.4 -19.2°
Drops below altitude 10° 18:49:41 10° 328° (NNW) 2,010 4.7 -19.8°
Sets 18:52:05 0° 338° (NNW) 2,925 5.4 -20.2°
